Weather in Vrevskoye

Russia / Stavropol Krai     44°41′59″N   41°31′53″E
temp.,
°C
wind,
m/s
gust,
m/s
humid.,
%
clouds,
%
prec.,
mm/h
press.,
hPa
HPBL,
m
17 may, mon
mon1700:00+16ese4117895 0.0 1003197
03:00+15se34791 0.0 100357
06:00+16ssw23920 0.0 1005111
09:00+20wnw578087 0.0 1006716
12:00+22n786798 0.0 10061053
15:00+22n676797 0.0 10071343
18:00+19nw5785100 0.3 1007479
21:00+15w61096100 4.5 1010539
18 may, tue
tue1800:00+14w4997100 2.0 1010610
03:00+13wnw3897100 5.0 1010361
06:00+13w1396100 0.0 1012173
09:00+15nw2286100 0.1 1012525
12:00+19nw3468100 0.0 10121102
15:00+20nnw2263100 0.1 10111223
18:00+19ene127511 0.5 1011390
21:00+15ese33865 0.5 101138
19 may, wed
wed1900:00+13ese498950 0.0 1010170
03:00+12sse3793100 0.1 1009127
06:00+13w61297100 1.4 1011714
09:00+15w348781 3.1 1011571
12:00+12w3109541 4.2 1015579
15:00+18wnw686318 4.6 10141396
18:00+16wnw510733 0.1 1015772
21:00+11sse228041 0.1 101714
20 may, thu
thu2000:00+10se23900 0.0 101733
03:00+9sse229214 0.0 101717
06:00+10se22849 0.0 101854
09:00+16ese34625 0.0 1017386
12:00+21e345194 0.0 10151164
15:00+22e4554100 0.0 10141363
18:00+20e5974100 0.0 1014356
21:00+15ese4128172 0.0 1014236
21 may, fri
fri2100:00+14ese514780 0.0 1013270
03:00+12ese511860 0.0 1013197
06:00+13ese511845 0.0 1013224
09:00+20ese710695 0.0 1012346
12:00+24ese810600 0.0 1011565
15:00+25ese813665 0.0 1010647
18:00+23ese916713 0.0 1010589
21:00+20ese918650 0.0 1010428